Regional Weather Roundup
Issued by NWS

Home | Current Version | Previous Version | Graphics & Text | Print | Product List | Glossary On
Versions: 1 2 3 4 5 6 7 8 9 10 11 12 13 14 15 16 17 18 19 20 21 22 23 24 25 26 27 28 29 30 31 32 33 34 35 36 37 38 39 40 41 42 43 44 45 46 47 48 49 50
000
ASUS43 KMKX 251400
RWRWI

WISCONSIN REGIONAL WEATHER ROUNDUP
NATIONAL WEATHER SERVICE MILWAUKEE/SULLIVAN WI
900 AM CDT WED MAY 25 2016

NOTE: "FAIR" INDICATES FEW OR NO CLOUDS BELOW 12,000 FEET WITH NO
SIGNIFICANT WEATHER AND/OR OBSTRUCTIONS TO VISIBILITY.

WIZ001-002-006>008-014>016-023>028-251500-
NORTHWEST WISCONSIN

CITY           SKY/WX    TMP DP  RH WIND       PRES   REMARKS
SUPERIOR ARPT  FOG       45  45 100 NE10G17   30.04R VSB 3/4
ASHLAND        FOG       51  51 100 N7        30.05R VSB 1/4
HAYWARD        CLOUDY    60  55  83 NE8       30.01S
SIREN          CLOUDY    58  57  96 NE5       29.97R
CUMBERLAND     CLOUDY    64  57  77 SE8       29.97R
RICE LAKE      CLOUDY    67  57  70 E9        29.98S
CHETEK         CLOUDY    65  60  82 E7        29.97S
LADYSMITH      CLOUDY    66  60  81 E8        30.01R
EAU CLAIRE     NOT AVBL
MENOMONIE      PTSUNNY   68  62  82 E6        29.95S
NEW RICHMOND   PTSUNNY   70  57  64 SE8       29.93F
OSCEOLA        CLOUDY    67  60  75 E9        29.95F
$$

WIZ003>005-009-010-017-018-251500-
NORTH CENTRAL WISCONSIN

CITY           SKY/WX    TMP DP  RH WIND       PRES   REMARKS
MANITOWISH WTR NOT AVBL
ARBOR VITAE    CLOUDY    59  58  97 SE9       30.06R FOG
WOODRUFF       CLOUDY    59  58  97 SE9       30.06R FOG
RHINELANDER    CLOUDY    59  58  96 E9        30.06S
EAGLE RIVER      N/A     57  57 100 SE6       30.07R
LAND O LAKES   CLOUDY    58  58 100 SE9       30.07S
PHILLIPS       PTSUNNY   59  58  95 E8        30.03R
TOMAHAWK       CLOUDY    57  56  97 E5        30.05S
MEDFORD        CLOUDY    64  60  87 E8        30.01S
MERRILL        CLOUDY    57  57 100 E6        30.05S
$$

WIZ029-030-035-036-043>047-251500-
CENTRAL WISCONSIN

CITY           SKY/WX    TMP DP  RH WIND       PRES   REMARKS
WAUSAU         CLOUDY    62  57  83 E9        30.02S
MOSINEE        CLOUDY    61  59  94 E10       30.04R
MARSHFIELD     CLOUDY    67  59  75 E10       29.99F
STEVENS POINT  PTSUNNY   60  56  86 E12       30.03S
WAUPACA        CLOUDY    61  60  96 E9        30.05R
WAUTOMA        PTSUNNY   68  59  73 E12       30.01F
WISC RAPIDS    CLOUDY    69  57  65 E9        30.01S
CAMP DOUGLAS   NOT AVBL
$$

WIZ011>013-019>022-031-037>040-048>050-251500-
NORTHEAST WISCONSIN

CITY           SKY/WX    TMP DP  RH WIND       PRES   REMARKS
ANTIGO         FOG       58  58 100 SE9       30.07R VSB 1
SHAWANO        CLOUDY    60  58  92 E9        30.07R
OCONTO         CLOUDY    57  57 100 E5        30.06R
STURGEON BAY   NOT AVBL
GREEN BAY      CLOUDY    59  56  89 NE10      30.06R FOG
MANITOWOC      CLOUDY    57  55  94 NE8G16    30.05F FOG
APPLETON       FOG       57  57 100 NE12G17   30.03S VSB 1
CLINTONVILLE   CLOUDY    59  59 100 E7        30.05R FOG
OSHKOSH        PTSUNNY   63  58  83 NE13      30.02S HAZE
$$

WIZ032>034-041-042-053>061-251500-
SOUTHWEST WISCONSIN

CITY           SKY/WX    TMP DP  RH WIND       PRES   REMARKS
LA CROSSE      PTSUNNY   70  59  68 SE8       29.94S
SPARTA         CLOUDY    73  60  65 E8        29.95F
VIROQUA        PTSUNNY   69  60  73 SE13      29.96F
BOSCOBEL       CLOUDY    68  62  81 NE5       29.96S
PRAIRIE DU CHI CLOUDY    65  61  88 CALM      29.96R
PLATTEVILLE    CLOUDY    71  65  79 SE8       29.98S
$$

WIZ056-057-062-063-064-067-068-251500-
SOUTH CENTRAL WISCONSIN

CITY           SKY/WX    TMP DP  RH WIND       PRES   REMARKS
REEDSBURG      CLOUDY    67  61  81 CALM      29.97F
BARABOO/DELLS  CLOUDY    70  60  70 E5        29.98F
LONE ROCK      NOT AVBL
MINERAL POINT  CLOUDY    70  64  83 SE5       29.98S
MADISON        CLOUDY    71  62  73 S8        29.98F
MIDDLETON      CLOUDY    71  63  76 SE5       29.99F
WATERTOWN      MOSUNNY   72  64  75 CALM      29.99F
MONROE         CLOUDY    72  63  73 S12       29.99R
JANESVILLE     SUNNY     75  64  69 SW6       29.98S
$$

WIZ051-052-058>065-066-070>072-251500-
SOUTHEAST WISCONSIN

CITY           SKY/WX    TMP DP  RH WIND       PRES   REMARKS
MILWAUKEE      CLOUDY    75  64  68 CALM      30.01R
WAUKESHA       SUNNY     72  63  73 S6        30.01F
MILWAUKEE/TIMM PTSUNNY   72  59  64 NE6       30.02R
RACINE         CLOUDY    75  63  66 CALM      30.02S
BURLINGTON     CLOUDY    72  62  71 S3        30.01R
KENOSHA        CLOUDY    76  64  66 S3        30.01S
FOND DU LAC    CLOUDY    70  61  73 N9        30.01S
SHEBOYGAN      PTSUNNY   59  54  83 NE14      30.05R
WEST BEND      CLOUDY    70  61  73 E7        30.02R
JUNEAU         CLOUDY    73  62  68 SE3       30.02R
$$

LSZ147-162-251500-
LAKE SUPERIOR

STATION/POSITION TIME  TEMP    WIND        PRES    WAVE
                       AIR SEA DIR/SP/G            HT/PER
                 (UTC) (F)     (DEG/KT/KT) (MB)    (FT/S)
W MID LAKE BUOY  1250   40 38   50/ 12/ 14 1018.5R   1/ 3
DEVILS ISLAND    1300   44      50/ 16/ 19 1018.1R
PORT WING        1300   44      30/ 14/ 15 1017.3
SAXON HARBOR     1340   48      20/  7/  7 1016.9R
$$

LMZ867-665-643>646-251500-
LAKE MICHIGAN

STATION/POSITION TIME  TEMP    WIND        PRES    WAVE
                       AIR SEA DIR/SP/G            HT/PER
                 (UTC) (F)     (DEG/KT/KT) (MB)    (FT/S)
CHAMBERS ISLAND  1300   53     360/ 11/ 15 1017.9R
N MID LAKE BUOY  1250   47 44  360/  8/  8 1017.2R   1
NORTHPORT PIER   1300   51     350/  6/  8 1017.9R
SISTER BAY       1349   55      10/  8/  8   N/A
ALGOMA LAKESHORE 1317           20/  9/ 13   N/A
KEWAUNEE LAKESHO 1300   53      20/  5/  8 1016.9R
SHEBOYGAN LAKESH 1300   49     350/ 20/ 21 1017.4R
PORT WASHINGTON  1300   56      50/  6/  9 1017.3R
S MID LAKE BUOY  1250   53 49  170/ 10/ 10 1016.2R   1
KENOSHA   LAKESH 1300   64     170/  9/ 10 1015.9R
$$

TC  - TEMPERATURE IN CELSIUS
VSB - VISIBILITY IN STATUTE MILES
WCI - WIND CHILL INDEX
HX  - HEAT INDEX





USA.gov is the U.S. government's official web portal to all federal, state and local government web resources and services.